Find Kosmos-1554

NORAD ID: 14977 Int'l Des: 1984-047 Owner: GUKOS Country: SU Constellation: GLONASS operational
MEOCIRCULAR

Live Position

Loading 3D Globe...

About Kosmos-1554

Description loading...

Upcoming Passes

Passes for default location (London). Set your location on the main map for personalized predictions.

Altitude History

Loading altitude history...

Two-Line Element Set

1 14977U 84047A 26099.28198327 -.00000044 00000-0 00000-0 0 9996
2 14977 66.3987 330.4007 0017669 216.0417 323.4042 2.13100456102414
Epoch: Apr 9, 2026 • Age: 133 hours

Current Status

Altitude 19142.5 km
Velocity 3.95 km/s
Sub-Earth Point 52.76°N, 28.64°W
Launch Date May 19, 1984
Age 41.9 years
Type other

Technical Details

Classification Payload
Mass 1300.00 kg
Dry Mass 1200.00 kg
Total Mass 1300.00 kg
Length 4.00 m
Diameter 1.50 m
Span 7.80 m
Shape Cyl + Ant + 2 Pan
Manufacturer OAZ
Bus Type Uragan
Phase Status In Orbit
Owner/State GUKOS/SU

Most Searched